Lapse_Rate
5.2 6.8 5.6 5.8 5.3 5.7 5.8 5.9 5.2 4.6 4.5 4.2 4.3 4.8 4.6 4.6 4.8 5.0 6.0 5.8 5.6 5.5 4.6 4.1 4.2 3.9 3.9 4.1 4.1 4.2 5.6 6.1 6.7 6.0 6.4 4.8 3.7 4.6 5.1 5.2 4.6 4.7 5.2
6.0 6.9 6.7 5.8 5.4 5.3 5.5 5.5 5.5 6.2 6.2 5.8 5.1 4.6 4.5 4.6 5.0 5.1 5.7 6.6 5.6 5.5 5.3 5.0 5.4 4.9 5.0 4.7 4.8 4.6 5.2 4.9 5.3 6.1 7.2 8.1 7.3 6.2 6.4 6.5 6.5 6.6 6.1
5.4 6.6 6.6 6.3 5.7 5.2 5.1 4.8 4.8 5.6 6.1 6.4 6.7 6.5 5.7 4.8 4.7 5.0 5.3 6.0 5.4 5.2 5.0 4.9 4.9 5.1 5.3 6.1 6.3 6.3 5.4 5.3 5.7 6.2 7.1 8.1 8.6 8.8 7.5 6.9 6.4 6.9 6.8
6.0 7.4 7.0 6.5 6.8 6.5 6.0 5.0 4.8 5.1 5.7 6.2 6.3 6.5 6.6 6.5 6.6 5.8 5.5 5.7 5.5 5.2 5.2 5.5 5.9 5.9 6.2 6.1 5.3 5.2 4.7 5.0 5.2 5.7 5.9 5.3 6.3 7.5 8.2 8.4 8.3 7.9 7.0
6.1 7.2 7.6 7.5 7.5 7.5 7.4 7.2 6.5 5.9 5.7 5.9 6.1 6.4 6.5 6.7 6.8 6.5 6.0 5.7 5.7 5.6 5.6 6.0 6.7 6.3 3.8 5.2 7.0 7.0 7.2 6.9 6.7 7.2 7.2 7.4 7.1 6.9 7.6 7.7 7.1 6.8 7.6
6.4 6.0 6.2 6.5 6.8 6.9 6.9 6.9 6.9 6.7 6.7 6.4 6.4 6.6 6.2 5.4 2.7 0.9 4.1 5.7 5.9 6.1 6.3 6.5 6.4 2.6 2.2 0.4 0.6 1.5 5.1 7.3 6.5 6.4 6.9 6.9 7.1 6.7 6.3 6.1 6.4 6.6 6.3
1.7 2.0 2.4 3.6 3.5 3.6 4.6 5.3 5.8 5.8 5.8 5.4 5.7 5.8 5.5 2.8 -3.4 -2.5 -1.3 5.9 6.4 5.9 6.0 6.0 5.8 5.3 2.9 5.4 2.0 -0.7 -0.5 -1.0 -0.5 4.0 5.6 5.9 5.8 4.9 3.9 5.2 6.1 6.3 5.9
0.0 0.1 0.5 0.8 1.0 1.2 1.4 1.4 2.1 1.4 0.4 1.2 0.0 1.3 -1.6 -3.5 -4.5 -4.3 -4.3 1.4 3.3 4.6 2.2 -0.2 0.3 0.7 -1.9 -1.7 0.3 2.3 0.9 -4.7 -4.2 -3.1 -3.3 -3.7 -4.3 -3.8 -2.1 -0.7 -0.3 -1.9 -1.9
-1.5 -1.0 -0.6 -0.3 -0.6 -0.8 -0.8 -0.7 -0.2 -1.1 -2.5 -3.2 -3.7 -3.0 -3.3 -4.1 -4.5 -4.1 -2.5 1.0 1.1 -2.4 -3.5 -4.2 -3.7 -3.2 -4.1 -3.4 -1.2 -0.6 -4.0 -4.4 -3.8 -3.6 -4.0 -4.5 -4.5 -4.1 -4.0 -0.8 0.3 0.3 1.2
-1.8 -1.1 -0.8 -1.3 -1.3 -1.6 -1.5 -1.8 -2.1 -2.7 -3.3 -3.6 -4.1 -4.3 -4.3 -3.9 -4.0 -3.6 -2.6 -0.7 -2.3 -3.6 -4.6 -4.8 -5.2 -4.2 -4.2 -3.5 -1.7 -0.5 -1.8 -2.4 -2.9 -3.1 -2.7 -3.4 -3.3 -2.9 -2.3 -1.6 -0.2 2.0 2.3
0.6 0.8 0.1 -0.2 -0.6 -0.5 -0.9 -0.9 -1.2 -2.0 -2.5 -2.8 -3.3 -3.3 -3.1 -3.1 -2.8 -2.5 -2.0 -1.7 -2.6 -3.5 -3.8 -3.7 -3.2 -2.7 -2.7 -2.5 -2.5 -2.8 -2.0 -3.2 -1.3 -0.7 -0.7 -0.2 -0.2 -0.1 -0.3 0.0 0.4 1.6 2.1
0.2 -0.3 -0.3 -0.9 -0.4 0.5 0.2 -0.0 -0.3 -0.5 -0.9 -1.2 -1.3 -1.7 -1.9 -1.5 -1.2 -1.7 -2.3 -2.6 -2.1 -2.2 -2.3 -1.4 -0.8 -0.6 -1.3 -1.7 -1.5 -0.7 0.4 0.7 0.5 0.2 0.5 0.7 1.1 1.3 1.5 1.2 0.6 0.7 0.6
1.0 0.4 -0.5 -0.7 -0.2 0.3 -0.2 -0.0 0.9 1.0 0.5 0.4 0.7 0.8 0.9 0.9 0.1 -0.3 -1.2 -1.3 -0.8 -0.8 -0.6 -0.2 0.6 0.4 0.3 -0.0 0.8 1.0 1.5 2.0 2.2 2.1 2.0 1.7 1.8 2.2 2.9 3.2 2.8 2.5 2.5
1.8 1.0 1.2 0.5 0.7 0.9 0.8 1.1 1.3 1.8 2.1 2.5 2.8 2.9 2.8 2.7 2.3 2.1 1.7 1.4 0.8 1.0 1.9 1.7 1.2 0.9 0.5 1.2 2.1 1.9 1.8 2.2 2.5 2.3 2.1 2.3 3.1 3.2 3.1 3.4 3.6 3.9 3.8
2.9 2.6 2.3 1.9 1.9 1.8 1.5 3.1 3.4 3.4 3.4 2.9 3.5 3.5 3.5 3.3 3.7 3.6 3.3 3.1 2.9 2.0 2.6 3.1 3.0 3.0 2.7 2.5 2.0 1.8 2.4 2.8 2.5 2.8 3.4 3.5 3.4 3.6 3.4 3.8 4.4 4.8 4.8
3.6 3.3 3.0 2.8 2.8 3.4 3.6 3.0 2.9 3.1 2.8 2.6 3.0 3.0 3.0 3.1 3.2 2.7 2.3 2.0 2.2 2.8 2.8 2.3 2.0 2.2 2.3 2.7 2.7 2.7 2.4 2.3 2.9 3.5 3.7 4.0 4.2 4.3 4.7 4.8 5.2 5.4 6.4
2.4 2.9 3.2 3.4 3.8 3.4 3.4 3.5 2.3 1.8 1.8 2.0 3.0 3.2 3.4 3.3 3.2 2.6 2.5 2.2 1.8 3.1 1.8 1.7 1.8 2.4 2.9 3.4 3.3 3.2 2.8 2.8 3.4 3.8 4.0 4.2 4.6 4.8 5.0 5.0 5.3 6.0 6.5
1.6 1.2 2.5 2.6 2.7 2.6 2.4 2.2 2.5 2.6 1.9 1.1 0.7 1.3 2.2 2.3 2.0 2.0 2.2 3.3 2.4 1.8 1.9 2.4 2.8 3.3 3.6 3.6 3.6 3.7 3.6 3.6 3.5 3.8 3.8 3.8 4.5 5.2 5.5 5.6 5.6 5.6 7.1
2.8 2.1 2.0 1.9 1.5 1.6 2.1 1.8 1.5 1.2 0.7 0.8 1.6 1.0 -0.3 0.8 0.7 0.8 1.4 1.6 1.5 1.6 2.1 2.3 2.6 3.1 3.4 3.6 3.2 3.1 2.9 2.6 2.7 3.1 3.4 3.6 4.1 5.4 5.5 5.6 6.1 4.7 6.0
2.6 2.1 2.6 2.9 2.8 2.6 2.2 2.0 1.8 1.6 1.4 1.2 0.8 0.3 1.4 2.1 1.6 0.6 0.4 0.9 1.4 1.8 2.4 2.7 2.8 2.9 3.2 3.4 3.2 3.4 3.6 3.3 3.4 3.7 3.4 3.5 4.0 4.9 5.2 5.3 5.6 6.4 6.7
3.6 3.1 2.3 3.4 3.2 2.9 2.9 2.6 2.4 2.3 1.9 1.4 0.3 -0.6 -0.8 2.2 1.4 1.3 1.5 1.6 2.0 2.3 2.5 3.1 3.0 3.0 3.2 2.9 3.2 2.8 2.5 2.7 2.3 2.5 2.9 3.4 3.2 4.5 4.8 5.2 5.5 6.0 6.5
4.2 4.2 4.1 3.6 3.6 3.5 3.3 3.3 3.3 3.2 2.8 2.7 2.5 1.1 0.9 2.5 2.4 2.4 2.0 1.7 2.1 2.4 2.4 2.7 3.0 2.6 2.1 2.4 2.5 2.7 2.3 2.2 2.1 2.1 2.4 2.3 3.1 3.9 4.1 4.9 5.2 5.6 6.3
4.2 4.4 4.4 4.1 3.9 3.0 3.8 3.9 3.8 3.9 3.6 3.4 3.5 3.3 2.9 2.5 2.4 2.5 2.0 2.1 2.1 1.8 1.5 2.2 2.4 2.0 1.2 1.1 1.4 1.9 2.6 2.2 1.4 0.8 1.8 2.3 3.2 3.7 3.9 4.7 5.1 5.7 6.0
4.1 4.4 4.4 3.8 3.9 3.9 3.9 4.1 4.0 3.2 4.0 3.9 3.8 3.4 2.8 2.3 2.3 1.6 1.5 1.4 1.6 1.6 1.1 1.1 1.6 1.9 1.9 1.9 1.9 2.2 1.6 0.9 0.9 1.1 0.0 1.5 2.7 3.2 3.7 4.3 5.0 4.8 5.4
3.7 3.7 3.7 3.7 3.8 3.7 4.0 4.0 3.8 3.8 3.9 3.8 3.6 3.4 3.1 3.0 2.7 2.0 1.3 0.8 0.5 1.1 1.1 1.3 1.6 1.8 2.1 1.4 1.3 1.1 0.1 -0.5 -0.2 -0.6 0.9 1.2 1.8 1.5 2.4 3.6 3.8 5.0 5.1
3.8 3.8 3.8 4.0 3.7 3.8 4.0 4.0 3.5 3.5 3.3 2.8 2.4 2.3 2.3 2.5 2.2 1.7 1.4 1.3 1.4 1.5 1.3 1.6 1.6 1.1 1.1 2.4 2.1 0.8 -0.1 -0.3 0.0 -0.7 0.1 1.6 2.1 2.8 3.1 3.4 3.6 4.8 5.6
Wind_Speed
11 13 10 8 6 6 7 7 8 8 9 10 11 12 14 15 16 14 13 9 9 9 8 8 9 7 5 5 5 4 7 7 9 8 8 9 10 13 18 26 26 23 26
11 12 11 11 9 7 7 8 8 10 11 13 11 10 10 10 12 14 17 15 12 11 10 11 13 7 12 12 8 11 11 12 10 15 17 13 16 17 17 16 17 23 24
13 12 10 9 11 10 9 8 8 8 9 9 11 12 13 11 10 12 13 14 13 13 12 12 13 12 13 11 13 12 11 10 10 12 14 13 12 11 14 15 15 16 24
12 11 11 10 10 11 10 10 9 9 10 11 11 12 12 13 14 13 12 12 12 11 12 13 14 15 18 15 12 13 13 11 11 11 11 12 12 15 12 13 13 12 13
10 10 9 9 8 7 8 9 10 11 11 11 11 12 12 11 10 13 13 12 12 12 13 14 17 17 16 16 11 16 16 13 12 12 12 12 12 12 14 12 12 12 14
6 3 4 5 6 7 7 7 7 8 8 9 10 11 10 7 10 14 11 10 12 13 13 14 14 12 14 16 17 20 18 16 15 12 13 15 17 13 13 12 12 12 13
12 10 10 9 9 8 2 3 5 6 7 7 8 9 8 5 13 7 6 12 10 11 12 11 11 10 13 15 18 19 20 20 15 16 17 15 13 7 7 11 14 14 12
12 12 11 10 10 10 9 9 8 8 10 8 10 9 11 10 13 10 8 8 9 8 6 8 7 7 9 7 7 7 3 9 6 6 8 8 6 6 3 3 2 3 3
14 13 11 10 11 11 11 10 8 10 11 11 10 12 11 12 18 13 6 1 6 9 11 13 9 7 11 8 2 3 7 8 15 22 22 20 21 24 18 3 3 1 0
14 11 11 12 13 13 11 11 10 11 11 9 12 12 14 12 20 17 10 4 8 7 10 11 20 14 17 13 3 3 7 4 7 10 10 15 20 19 26 13 6 4 3
13 12 13 13 14 12 11 10 10 10 10 10 12 11 13 14 16 23 18 9 7 8 8 9 9 20 23 24 21 12 10 11 10 10 9 8 9 10 9 14 15 8 5
13 14 13 15 11 10 13 11 11 10 10 10 10 9 9 10 20 23 23 20 15 10 10 8 11 23 25 24 18 22 21 12 7 8 8 8 8 8 9 11 18 17 17
14 13 13 15 13 13 13 12 10 11 9 9 8 8 8 8 9 19 22 22 20 12 9 15 18 19 21 19 23 20 14 9 8 9 9 8 8 7 8 7 11 13 16
13 13 13 14 14 14 11 10 9 9 9 9 9 9 9 9 8 7 7 8 12 11 12 11 13 14 15 13 12 13 10 9 8 7 7 5 5 5 6 5 4 2 5
10 11 10 10 14 14 15 11 11 13 12 10 9 9 8 9 9 13 11 7 7 8 9 8 9 9 9 9 9 10 8 8 8 6 5 5 5 5 6 5 5 5 6
9 8 8 8 9 9 10 12 26 25 26 25 21 13 10 16 17 18 17 17 15 11 10 9 9 9 9 8 8 8 8 9 7 6 6 6 6 6 5 5 5 6 5
10 8 7 7 6 6 7 7 8 12 24 23 22 21 19 15 16 16 18 20 18 13 9 8 8 8 7 7 7 7 7 7 7 6 6 6 5 5 5 5 5 5 5
11 12 7 7 7 7 7 7 6 6 7 7 15 17 19 19 18 13 11 11 10 12 9 8 7 7 7 7 7 6 6 6 6 6 6 6 6 5 5 5 5 5 5
9 7 7 7 7 8 7 7 7 8 8 7 6 8 10 15 19 21 19 10 8 8 8 8 7 7 6 6 6 6 6 6 6 5 6 6 5 5 5 5 5 6 5
8 10 8 6 6 6 6 7 7 7 7 7 7 7 6 6 9 9 9 8 8 7 7 7 6 6 6 5 5 5 5 6 6 5 5 5 5 5 4 4 4 4 4
5 6 8 7 7 7 7 7 6 6 6 7 8 8 10 8 7 7 7 7 7 7 6 6 5 5 5 5 5 5 5 5 5 5 4 5 4 4 4 4 4 4 4
5 6 6 6 6 6 6 6 6 6 6 7 6 7 9 7 6 6 6 6 6 7 8 7 5 6 7 6 6 5 5 5 5 5 5 4 4 4 4 4 4 3 4
5 5 5 5 6 6 6 6 6 6 6 6 5 5 5 5 5 5 5 4 6 7 7 7 6 6 7 7 7 7 5 4 5 6 5 5 4 4 4 4 4 4 4
5 6 6 5 5 5 5 5 5 6 5 5 4 4 4 4 4 4 4 5 5 6 6 6 6 5 5 5 5 5 4 4 6 6 6 5 5 4 4 4 3 4 4
6 6 6 5 5 5 4 5 4 4 4 3 3 3 3 3 3 4 4 5 6 6 5 5 4 3 4 5 4 3 2 4 5 6 7 6 5 5 4 4 4 4 4
5 5 4 4 4 4 4 4 3 3 3 2 2 2 2 3 3 3 4 4 4 3 3 3 4 5 6 4 3 1 4 6 8 8 7 7 5 4 4 4 4 4 4
Wind_Direction
170 164 159 160 149 152 164 165 153 147 151 163 167 171 173 178 192 200 210 213 215 211 194 183 198 183 210 214 207 221 254 240 256 270 271 231 202 215 233 235 242 235 250
165 163 161 159 164 174 181 182 171 173 173 172 172 175 180 184 188 191 207 216 211 213 209 209 223 212 228 231 225 229 233 240 243 253 251 243 231 231 237 250 248 249 254
164 170 172 166 167 175 178 175 183 182 183 183 184 189 185 185 182 191 200 204 207 212 207 208 217 216 225 231 231 233 237 244 245 244 254 258 253 250 249 250 252 256 255
167 177 174 175 179 178 177 179 184 189 188 193 196 200 201 201 203 198 196 201 206 213 216 214 222 221 227 228 229 232 239 239 238 239 244 256 261 261 259 258 257 247 252
167 185 188 175 174 179 184 183 186 190 196 197 199 204 206 207 208 207 206 206 210 218 220 223 230 233 229 228 228 236 237 239 240 244 248 253 255 258 253 254 255 259 255
137 142 177 176 183 189 186 184 186 190 195 195 203 207 208 211 208 205 210 218 223 229 236 239 243 231 236 232 233 243 247 246 243 248 253 252 254 252 256 255 258 260 266
70 56 50 55 64 53 47 191 204 205 192 196 203 199 196 103 10 12 251 236 232 234 237 240 238 234 231 240 236 238 250 251 260 268 268 263 264 272 289 260 256 258 273
60 52 43 52 54 49 51 50 45 55 47 53 42 40 84 45 17 4 334 228 240 261 22 29 19 11 35 359 334 310 7 52 34 43 42 30 21 348 293 258 268 147 167
56 46 41 51 60 54 49 44 50 69 64 61 56 55 57 37 15 7 2 19 88 76 65 45 33 25 2 354 299 125 105 88 76 83 84 73 53 35 26 335 313 193 228
45 37 41 49 55 57 53 53 56 71 79 75 66 59 52 41 24 24 25 68 91 82 65 53 42 46 38 30 49 148 107 108 93 55 39 43 45 41 43 41 19 42 32
52 48 48 53 56 56 58 55 62 68 72 70 72 58 55 45 39 42 44 65 81 81 71 60 52 55 58 59 60 70 87 95 70 76 70 55 48 46 45 44 44 46 63
56 52 50 54 51 57 65 61 61 69 71 65 69 63 52 49 52 54 59 66 75 81 78 73 68 64 64 64 67 72 76 80 75 70 69 58 51 50 52 57 55 59 57
65 56 56 59 57 55 58 59 58 57 63 62 60 62 61 59 58 56 64 66 70 78 80 82 77 69 66 62 63 65 66 69 73 69 63 57 53 48 50 61 68 68 63
66 64 56 61 64 59 57 54 56 55 60 63 65 62 55 53 53 55 63 72 75 79 76 67 70 72 68 66 59 56 59 59 66 72 74 70 61 54 52 44 50 60 64
68 71 71 66 68 68 62 59 64 58 62 72 62 66 66 59 52 63 66 71 75 73 85 71 62 60 60 56 56 52 48 50 51 51 53 51 49 49 46 37 38 47 59
73 68 67 71 72 72 77 73 57 62 61 61 60 61 61 65 65 66 67 67 68 74 73 69 62 57 57 54 52 50 45 43 38 40 40 40 39 37 38 39 43 46 48
68 66 71 72 76 81 78 78 82 60 60 55 57 56 55 60 66 70 71 71 64 73 71 66 64 59 57 55 53 51 50 42 40 43 39 35 34 43 39 43 40 41 46
64 59 69 71 74 75 74 74 76 75 70 57 45 44 54 54 54 55 65 69 60 58 62 62 59 54 53 55 52 50 49 44 41 38 39 33 29 30 31 36 37 28 30
57 59 61 65 63 66 72 72 67 65 62 55 49 53 40 50 55 52 55 62 64 61 58 60 54 51 51 52 52 53 49 47 40 39 35 30 24 23 29 25 31 30 4
62 61 63 67 68 68 65 67 66 65 63 55 46 34 31 47 49 47 50 56 60 59 56 58 55 55 51 55 51 42 47 37 32 28 24 21 10 13 20 11 11 3 10
58 59 55 65 60 59 59 62 63 65 66 63 57 39 37 63 61 56 55 54 56 55 50 54 53 49 52 50 44 45 38 31 24 12 10 7 359 353 352 352 349 348 352
49 55 56 60 62 64 67 70 72 75 75 77 74 56 49 63 67 67 63 58 54 53 46 45 49 48 45 43 37 34 34 26 21 11 7 350 339 341 334 333 332 335 335
59 71 73 71 76 82 78 78 79 79 79 76 74 68 59 63 63 64 64 53 49 43 34 39 49 58 57 47 37 30 27 29 17 1 347 338 336 340 330 327 329 320 338
61 70 79 77 77 83 83 83 85 78 83 85 85 80 74 71 67 64 49 33 25 28 30 33 42 47 47 31 21 17 27 15 359 352 340 335 323 320 316 310 307 316 313
57 64 66 68 70 76 85 78 76 74 73 68 75 70 70 61 54 37 26 21 19 23 33 29 21 5 345 334 334 341 359 355 349 337 324 311 316 308 303 299 313 305 313
58 61 65 72 77 74 73 73 67 53 48 51 62 55 35 29 21 9 10 13 13 11 352 349 342 335 331 326 348 354 326 327 328 324 314 305 306 309 306 302 303 301 306